TimePST,TemperatureF,Dew PointF,Humidity,Sea Level PressureIn,VisibilityMPH,Wind Direction,Wind SpeedMPH,Gust SpeedMPH,PrecipitationIn,Events,Conditions,WindDirDegrees,DateUTC
12:04 AM,46.4,46.4,100,30.10,0.5,Calm,Calm,-,0.00,Fog-Rain,Light Rain,0,2013-01-24 08:04:00
12:22 AM,46.4,46.4,100,30.09,1.2,Calm,Calm,-,0.00,,Overcast,0,2013-01-24 08:22:00
12:26 AM,46.4,44.6,93,30.09,0.8,Calm,Calm,-,0.00,,Overcast,0,2013-01-24 08:26:00
12:56 AM,46.9,46.0,97,30.09,0.8,Calm,Calm,-,0.00,,Mist,0,2013-01-24 08:56:00
1:04 AM,46.4,46.4,100,30.09,1.0,Calm,Calm,-,0.00,Rain,Light Rain,0,2013-01-24 09:04:00
1:08 AM,46.4,46.4,100,30.09,1.2,Calm,Calm,-,0.00,Rain,Light Rain,0,2013-01-24 09:08:00
1:21 AM,46.4,46.4,100,30.09,1.0,Calm,Calm,-,0.00,Rain,Light Rain,0,2013-01-24 09:21:00
1:34 AM,46.4,46.4,100,30.09,3.0,Calm,Calm,-,0.01,Rain,Light Rain,0,2013-01-24 09:34:00
1:51 AM,46.4,46.4,100,30.09,2.5,Calm,Calm,-,0.01,,Overcast,0,2013-01-24 09:51:00
1:56 AM,46.9,46.0,97,30.09,2.5,Calm,Calm,-,0.01,,Overcast,0,2013-01-24 09:56:00
2:06 AM,46.4,44.6,93,30.10,1.8,Calm,Calm,-,N/A,,Overcast,0,2013-01-24 10:06:00
2:17 AM,46.4,44.6,93,30.10,0.8,Calm,Calm,-,N/A,,Overcast,0,2013-01-24 10:17:00
2:25 AM,46.4,44.6,93,30.10,1.2,Calm,Calm,-,N/A,,Overcast,0,2013-01-24 10:25:00
2:45 AM,46.4,44.6,93,30.11,0.5,Calm,Calm,-,N/A,Fog,Fog,0,2013-01-24 10:45:00
2:56 AM,46.0,45.0,96,30.11,0.5,Calm,Calm,-,N/A,Fog,Fog,0,2013-01-24 10:56:00
3:06 AM,46.4,44.6,93,30.11,0.2,Calm,Calm,-,N/A,Fog,Fog,0,2013-01-24 11:06:00
3:15 AM,46.4,44.6,93,30.11,0.5,Calm,Calm,-,N/A,Fog,Fog,0,2013-01-24 11:15:00
3:52 AM,46.4,46.4,100,30.09,0.5,Calm,Calm,-,N/A,Fog,Fog,0,2013-01-24 11:52:00
3:56 AM,46.0,45.0,96,30.09,0.5,Calm,Calm,-,N/A,Fog,Fog,0,2013-01-24 11:56:00
4:13 AM,46.4,46.4,100,30.10,1.2,Calm,Calm,-,N/A,,Overcast,0,2013-01-24 12:13:00
4:24 AM,46.4,46.4,100,30.10,2.5,Calm,Calm,-,N/A,,Overcast,0,2013-01-24 12:24:00
4:33 AM,46.4,44.6,93,30.10,1.8,Calm,Calm,-,N/A,,Overcast,0,2013-01-24 12:33:00
4:53 AM,46.4,46.4,100,30.11,1.8,Calm,Calm,-,N/A,,Overcast,0,2013-01-24 12:53:00
4:56 AM,46.0,45.0,96,30.11,2.0,Calm,Calm,-,N/A,,Overcast,0,2013-01-24 12:56:00
5:36 AM,46.4,46.4,100,30.12,1.8,Calm,Calm,-,0.01,Rain,Light Rain,0,2013-01-24 13:36:00
5:44 AM,46.4,46.4,100,30.12,2.5,Calm,Calm,-,0.01,Rain,Light Rain,0,2013-01-24 13:44:00
5:52 AM,46.4,46.4,100,30.12,2.0,Calm,Calm,-,0.01,,Overcast,0,2013-01-24 13:52:00
5:56 AM,46.9,46.0,97,30.12,1.8,Calm,Calm,-,0.01,,Overcast,0,2013-01-24 13:56:00
6:20 AM,46.4,46.4,100,30.12,1.8,Calm,Calm,-,N/A,,Overcast,0,2013-01-24 14:20:00
6:36 AM,46.4,44.6,93,30.13,1.5,Calm,Calm,-,N/A,,Overcast,0,2013-01-24 14:36:00
6:45 AM,46.4,44.6,93,30.13,1.8,Calm,Calm,-,N/A,,Overcast,0,2013-01-24 14:45:00
6:56 AM,46.0,46.0,100,30.13,1.5,Calm,Calm,-,N/A,,Overcast,0,2013-01-24 14:56:00
7:25 AM,46.4,46.4,100,30.14,1.5,Calm,Calm,-,N/A,,Overcast,0,2013-01-24 15:25:00
7:40 AM,46.4,46.4,100,30.14,2.5,Calm,Calm,-,N/A,,Overcast,0,2013-01-24 15:40:00
7:56 AM,46.9,46.0,97,30.14,1.8,Calm,Calm,-,0.01,,Overcast,0,2013-01-24 15:56:00
8:21 AM,48.2,46.4,93,30.14,2.0,Calm,Calm,-,N/A,,Overcast,0,2013-01-24 16:21:00
8:27 AM,48.2,46.4,93,30.14,3.0,Calm,Calm,-,N/A,,Overcast,0,2013-01-24 16:27:00
8:34 AM,48.2,46.4,93,30.15,2.5,Calm,Calm,-,N/A,,Overcast,0,2013-01-24 16:34:00
8:41 AM,48.2,46.4,93,30.15,4.0,Calm,Calm,-,N/A,,Overcast,0,2013-01-24 16:41:00
8:56 AM,48.0,46.9,96,30.15,3.0,Calm,Calm,-,N/A,,Overcast,0,2013-01-24 16:56:00
9:36 AM,50.0,48.2,94,30.16,5.0,Calm,Calm,-,N/A,,Mostly Cloudy,0,2013-01-24 17:36:00
9:56 AM,51.1,48.0,89,30.16,10.0,Calm,Calm,-,N/A,,Mostly Cloudy,0,2013-01-24 17:56:00
10:35 AM,51.8,48.2,88,30.17,10.0,Calm,Calm,-,N/A,,Scattered Clouds,0,2013-01-24 18:35:00
10:56 AM,53.1,48.9,86,30.16,10.0,Calm,Calm,-,N/A,,Mostly Cloudy,0,2013-01-24 18:56:00
11:07 AM,53.6,50.0,88,30.17,10.0,Calm,Calm,-,N/A,,Overcast,0,2013-01-24 19:07:00
11:28 AM,53.6,50.0,88,30.16,10.0,Calm,Calm,-,N/A,,Overcast,0,2013-01-24 19:28:00
11:56 AM,55.0,50.0,83,30.15,10.0,Calm,Calm,-,N/A,,Overcast,0,2013-01-24 19:56:00
12:56 PM,55.9,51.1,84,30.14,10.0,Calm,Calm,-,N/A,,Overcast,0,2013-01-24 20:56:00
1:56 PM,57.0,51.1,81,30.13,10.0,Calm,Calm,-,N/A,,Overcast,0,2013-01-24 21:56:00
2:56 PM,59.0,51.1,75,30.12,10.0,Calm,Calm,-,N/A,,Overcast,0,2013-01-24 22:56:00
3:56 PM,57.9,52.0,81,30.12,10.0,Calm,Calm,-,N/A,,Overcast,0,2013-01-24 23:56:00
4:56 PM,57.0,52.0,83,30.13,10.0,Calm,Calm,-,N/A,,Overcast,0,2013-01-25 00:56:00
5:56 PM,55.9,52.0,87,30.14,10.0,Calm,Calm,-,N/A,,Overcast,0,2013-01-25 01:56:00
6:56 PM,55.0,52.0,89,30.17,10.0,Calm,Calm,-,N/A,,Overcast,0,2013-01-25 02:56:00
7:56 PM,53.1,52.0,96,30.17,10.0,Calm,Calm,-,N/A,,Overcast,0,2013-01-25 03:56:00
8:56 PM,54.0,52.0,93,30.18,10.0,Calm,Calm,-,N/A,,Overcast,0,2013-01-25 04:56:00
9:56 PM,53.1,51.1,93,30.18,10.0,Calm,Calm,-,N/A,,Overcast,0,2013-01-25 05:56:00
10:56 PM,51.1,50.0,96,30.19,5.0,Calm,Calm,-,N/A,,Overcast,0,2013-01-25 06:56:00
11:29 PM,51.8,50.0,94,30.20,9.0,Calm,Calm,-,N/A,,Overcast,0,2013-01-25 07:29:00
11:56 PM,51.1,48.9,92,30.19,7.0,Calm,Calm,-,N/A,,Overcast,0,2013-01-25 07:56:00